• Join FlightAware (Why Join?)
  • Login
  • US Flag GB Flag 
12:33 EST


 

Airport Tracker/Info


-or-


 

Live Flight TrackerFlight Track Log ✈ FAO894 ✈ 29-Mar-2014 ✈ KPIE - KIAG

Flight Track Log - Related Links

Times and Time Zones

All times are in EDT time to prevent confusion due to time zone crossing. See the FAO894 flight status page for this flight to view local times or setup timezone preferences in your user account.

Time Position Orientation Groundspeed Altitude Reporting Facility
EDT Latitude Longitude Course Direction KTS MPH feet Rate Location/Type
07:09 27.9000 -82.6833 30° Northeast 192 221 500  Level Tampa TRACON
07:10 27.8833 -82.6833 180° South 183 211 1,400 1,740 Climbing Tampa TRACON
07:10 27.8333 -82.6833 180° South 196 226 2,600 2,280 Climbing Tampa TRACON
07:13 27.8619 -82.7892 287° West 159 183 8,700 2,460 Climbing Jacksonville Center
07:14 27.9411 -82.7564 20° North 170 196 10,800 1,800 Climbing Jacksonville Center
07:15 28.5532 -82.3701 30° Northeast  Level FlightAware Approximate
07:15 28.0350 -82.7208 18° North 268 308 12,400  Level Jacksonville Center
07:16 28.1331 -82.7161 North 319 367 14,800 2,220 Climbing Jacksonville Center
07:17 28.2394 -82.7089 North 353 406 16,900 1,920 Climbing Jacksonville Center
07:18 28.3458 -82.7039 North 374 430 18,700 1,680 Climbing Jacksonville Center
07:19 28.4567 -82.6967 North 386 444 20,300 1,620 Climbing Jacksonville Center
07:20 28.5733 -82.6869 North 403 464 22,000 1,200 Climbing Jacksonville Center
07:21 28.7006 -82.6794 North 408 470 22,800 1,080 Climbing Jacksonville Center
07:22 28.8133 -82.6697 North 419 482 24,200 1,320 Climbing Jacksonville Center
07:23 28.9406 -82.6625 North 441 507 25,500 1,380 Climbing Jacksonville Center
07:24 29.0681 -82.6525 North 451 519 27,000 1,500 Climbing Jacksonville Center
07:25 29.1953 -82.6428 North 456 525 28,600 1,380 Climbing Jacksonville Center
07:26 29.3206 -82.6353 North 456 525 29,800 720 Climbing Jacksonville Center
07:27 29.4458 -82.6256 North 456 525 30,100 540 Climbing Jacksonville Center
07:28 29.5753 -82.6156 North 461 531 30,900 360 Climbing Jacksonville Center
07:29 29.7150 -82.6081 North 461 531 30,900  Level Jacksonville Center
07:30 29.8403 -82.5981 North 456 525 30,900  Level Jacksonville Center
07:31 29.9656 -82.5881 North 456 525 30,900  Level Jacksonville Center
07:32 30.0761 -82.5853 North 446 513 30,900  Level Jacksonville Center
07:33 30.1994 -82.5753 North 440 506 30,900  Level Jacksonville Center
07:34 30.3225 -82.5678 North 440 506 30,900  Level Jacksonville Center
07:35 30.4456 -82.5578 North 440 506 30,900  Level Jacksonville Center
07:36 30.5686 -82.5233 14° North 445 512 30,900  Level Jacksonville Center
07:37 30.6875 -82.4722 20° North 445 512 30,900  Level Jacksonville Center
07:38 30.8086 -82.4208 20° North 456 525 30,900  Level Jacksonville Center
07:39 30.9397 -82.3669 19° North 456 525 30,900  Level Jacksonville Center
07:40 31.0608 -82.3131 21° North 456 525 30,900  Level Jacksonville Center
07:41 31.1794 -82.2611 21° North 451 519 30,900  Level Jacksonville Center
07:42 31.2983 -82.2142 19° North 451 519 30,900 420 Level Jacksonville Center
07:43 31.4169 -82.1597 21° North 446 513 31,800 720 Climbing Jacksonville Center
07:44 31.5356 -82.1053 21° North 452 520 32,400 600 Climbing Jacksonville Center
07:45 31.6419 -82.0581 21° North 452 520 33,000 300 Climbing Jacksonville Center
07:46 31.7731 -82.0006 20° North 452 520 33,000  Level Jacksonville Center
07:47 31.8917 -81.9481 21° North 452 520 33,000  Level Jacksonville Center
07:48 31.9978 -81.9006 21° North 452 520 33,000  Level Jacksonville Center
07:49 32.1289 -81.8450 20° North 447 514 33,000  Level Jacksonville Center
07:50 32.2472 -81.7922 21° North 447 514 33,000  Level Jacksonville Center
07:51 32.3556 -81.7417 22° Northeast 453 521 33,000  Level Jacksonville Center
07:52 32.4886 -81.6833 20° North 453 521 33,000  Level Jacksonville Center
07:53 32.6069 -81.6300 21° North 453 521 33,000 -60 Level Jacksonville Center
07:54 32.7275 -81.5739 21° North 453 521 32,900 -60 Descending Jacksonville Center
07:55 32.8333 -81.5253 21° North 453 521 32,900  Level Jacksonville Center
07:56 32.9539 -81.4742 20° North 453 521 32,900  Level Jacksonville Center
07:57 33.0703 -81.4178 22° Northeast 448 516 32,900  Level Jacksonville Center
07:58 33.1928 -81.3636 20° North 453 521 32,900  Level Jacksonville Center
07:59 33.3131 -81.3067 22° Northeast 453 521 32,900  Level Jacksonville Center
08:00 33.4314 -81.2525 21° North 453 521 32,900  Level Jacksonville Center
08:01 33.5561 -81.2203 12° North 453 521 32,900  Level Jacksonville Center
08:02 33.6831 -81.2028 North 453 521 32,900  Level Jacksonville Center
08:03 33.8186 -81.1853 North 448 516 33,000  Climbing Jacksonville Center
08:04 33.9414 -81.1703 North 443 510 32,900  Descending Jacksonville Center
08:05 34.0686 -81.1553 North 443 510 33,000  Climbing Jacksonville Center
08:07 34.3731 -81.1194 North 442 509 33,000 -60 Level Atlanta Center
08:08 34.4958 -81.1000 North 442 509 32,900 -60 Descending Atlanta Center
08:09 34.6206 -81.0856 North 442 509 32,900  Level Atlanta Center
08:10 34.7475 -81.0658 North 442 509 33,000  Climbing Atlanta Center
08:11 34.8725 -81.0539 North 442 509 33,000  Level Atlanta Center
08:12 34.9992 -81.0367 North 442 509 33,000  Level Atlanta Center
08:13 35.1219 -81.0194 North 442 509 33,000 -60 Level Atlanta Center
08:14 35.2467 -80.9997 North 442 509 32,900  Descending Atlanta Center
08:15 35.3714 -80.9850 North 442 509 33,000  Climbing Atlanta Center
08:16 35.4983 -80.9675 North 442 509 33,000  Level Atlanta Center
08:17 35.6253 -80.9500 North 442 509 33,000  Level Atlanta Center
08:18 35.7500 -80.9350 North 447 514 33,000  Level Atlanta Center
08:19 35.8789 -80.9172 North 447 514 33,000 -60 Level Atlanta Center
08:20 36.0036 -80.9022 North 453 521 32,900  Descending Atlanta Center
08:21 36.1325 -80.8817 North 459 528 33,000  Climbing Atlanta Center
08:22 36.2592 -80.8664 North 459 528 33,000  Level Atlanta Center
08:23 36.3881 -80.8486 North 459 528 33,000  Level Atlanta Center
08:24 36.5044 -80.8336 North 459 528 33,000  Level Atlanta Center
08:26 36.7356 -80.7989 North 467 537 33,000  Level Washington Center
08:27 36.8758 -80.7825 North 461 531 33,000  Level Washington Center
08:28 37.0039 -80.7650 North 466 536 33,000  Level Washington Center
08:29 37.1339 -80.7503 North 466 536 33,000  Level Washington Center
08:30 37.2642 -80.7331 North 466 536 33,000  Level Washington Center
08:31 37.3817 -80.7175 North 466 536 33,000  Level Washington Center
08:32 37.5117 -80.7000 North 466 536 33,000  Level Washington Center
08:33 37.6417 -80.6825 North 466 536 33,000 -60 Level Washington Center
08:34 37.7739 -80.6625 North 466 536 32,900  Descending Washington Center
08:35 37.9064 -80.6425 North 466 536 33,000  Climbing Washington Center
08:36 38.0478 -80.6019 13° North 471 542 33,000 -60 Level Washington Center
08:37 38.1783 -80.5686 11° North 471 542 32,900  Descending Washington Center
08:38 38.3092 -80.5350 11° North 471 542 33,000  Climbing Washington Center
08:39 38.4381 -80.4956 13° North 471 542 33,000  Level Washington Center
08:40 38.5686 -80.4644 11° North 471 542 33,000  Level Washington Center
08:42 38.8794 -80.3717 13° North 476 548 33,000  Level Cleveland Center
08:43 39.0078 -80.3353 12° North 475 547 33,000  Level Cleveland Center
08:45 39.1367 -80.3022 11° North 475 547 33,000 -60 Level Cleveland Center
08:46 39.2683 -80.2686 11° North 479 551 32,900  Descending Cleveland Center
08:47 39.3978 -80.2642 North 472 543 33,000  Climbing Cleveland Center
08:48 39.5278 -80.2586 North 471 542 33,000  Level Cleveland Center
08:49 39.6833 -80.2281 North 472 543 33,000  Level Cleveland Center
08:50 39.8133 -80.1803 16° North 479 551 33,000  Level Cleveland Center
08:51 39.9428 -80.1339 15° North 481 554 33,000  Level Cleveland Center
08:52 40.0711 -80.0892 15° North 481 554 33,000  Level Cleveland Center
08:53 40.1986 -80.0425 16° North 481 554 33,000 -300 Level Cleveland Center
08:54 40.3247 -79.9972 15° North 481 554 32,500 -540 Descending Cleveland Center
08:55 40.4747 -79.9419 16° North 481 554 31,900 -540 Descending Cleveland Center
08:56 40.6028 -79.8956 15° North 481 554 31,400 -480 Descending Cleveland Center
08:57 40.7325 -79.8492 15° North 483 556 31,000 -240 Descending Cleveland Center
08:58 40.8622 -79.8006 16° North 485 558 31,000  Level Cleveland Center
08:59 40.9925 -79.7528 15° North 486 559 31,000 -300 Level Cleveland Center
09:00 41.1336 -79.7003 16° North 486 559 30,400 -1,260 Descending Cleveland Center
09:01 41.2650 -79.6525 15° North 487 560 28,500 -1,860 Descending Cleveland Center
09:02 41.3972 -79.6019 16° North 489 563 26,600 -1,440 Descending Cleveland Center
09:03 41.5292 -79.5522 16° North 492 566 25,600 -900 Descending Cleveland Center
09:04 41.6803 -79.4967 15° North 476 548 24,800 -720 Descending Cleveland Center
09:05 41.8039 -79.4478 16° North 467 537 24,200 -420 Descending Cleveland Center
09:06 41.9264 -79.4025 15° North 460 529 24,000 -120 Descending Cleveland Center
09:07 42.0500 -79.3569 15° North 463 533 24,000 -1,020 Level Cleveland Center
09:08 42.1764 -79.3083 16° North 468 539 22,000 -2,040 Descending Cleveland Center
09:09 42.2997 -79.2606 16° North 466 536 19,900 -2,160 Descending Cleveland Center
09:11 42.5500 -79.1667 15° North 422 486 15,500 -2,280 Descending Buffalo TRACON
09:12 42.6667 -79.1167 17° North 414 476 13,100 -2,460 Descending Buffalo TRACON
09:13 42.7667 -79.0500 26° Northeast 392 451 10,600 -1,980 Descending Buffalo TRACON
09:14 42.8500 -78.9833 30° Northeast 347 399 9,200 -1,440 Descending Buffalo TRACON
09:15 42.9333 -78.9333 24° Northeast 269 310 7,600 -1,620 Descending Buffalo TRACON
09:16 43.0000 -78.8667 36° Northeast 255 293 5,800 -1,440 Descending Buffalo TRACON
09:17 43.0333 -78.8000 56° Northeast 216 249 4,700 -1,320 Descending Buffalo TRACON
09:18 43.0500 -78.7333 71° East 188 216 3,200 -1,260 Descending Buffalo TRACON
09:19 43.1000 -78.7500 346° North 204 235 2,200 -660 Descending Buffalo TRACON
09:20 43.1167 -78.8167 289° West 191 220 1,900 -600 Descending Buffalo TRACON
09:21 43.1167 -78.8833 270° West 174 200 1,100 -840 Descending Buffalo TRACON